Location: Sungai Bunut
(2.6333°N, 113.7333°E)
Time: 16:04:39
(UTC+00:00)

Altair - Pass Details

Date: 06 December 2023
Orbit: 1501 x 1682 km, 47.2° (Epoch: 24 February)

Event Time Altitude Azimuth Distance (km) Brightness Sun altitude
Rises 09:16:11 0° 316° (NW) 4,622 10.3 12.7°
Reaches altitude 10° 09:19:11 10° 315° (NW) 3,644 9.8 12.0°
Maximum altitude 09:28:18 75° 231° (SW) 1,563 8.0 10.0°
Drops below altitude 10° 09:37:42 10° 146° (SSE) 3,736 9.5 7.8°
Sets 09:40:49 0° 144° (SE) 4,744 9.9 7.1°
